Weather History for KYNG - September, 2013

Change the Weather History Date:

Tuesday, September 10, 2013

  Actual Average Record
Temperature  
Mean Temperature 81 °F 64 °F  
Max Temperature 91 °F 75 °F 93 °F (1941)
Min Temperature 70 °F 53 °F 37 °F (1956)
Degree Days  
Heating Degree Days 0 3  
Month to date heating degree days 19 23  
Since 1 July heating degree days 57 61  
Cooling Degree Days 16 2  
Month to date cooling degree days 33 27  
Year to date cooling degree days 582 513  
Growing Degree Days 30 (Base 50)    
Moisture  
Dew Point 70 °F    
Average Humidity 75    
Maximum Humidity 97    
Minimum Humidity 52    
Precipitation  
Precipitation T in 0.13 in 1.96 in (2011)
Month to date precipitation 0.01 1.25  
Year to date precipitation 27.23 27.47  
Snow  
Snow 0.00 in 0.00 in - ()
Month to date snowfall 0.0 0.0  
Since 1 July snowfall 0.0 0.0  
Since 1 September snowfall 0.0 0.0  
Snow Depth 0.00 in    
Sea Level Pressure  
Sea Level Pressure 30.05 in    
Wind  
Wind Speed 9 mph (SSW)    
Max Wind Speed 16 mph    
Max Gust Speed 22 mph    
Visibility 7 miles    
Events      
T = Trace of Precipitation, MM = Missing Value Source: NWS Daily Summary

Daily Weather History Graph

Daily Weather History Graph

Search for Another Location

Airport or City:

Trip Planner

Search our weather history database for the weather conditions in past years. The results will help you decide how hot, cold, wet, or windy it might be!

Date:

Astronomy

Sep. 10, 2013 Rise Set
Actual Time 6:58 AM EDT 7:40 PM EDT
Civil Twilight 6:30 AM EDT 8:07 PM EDT
Nautical Twilight 5:57 AM EDT 8:40 PM EDT
Astronomical Twilight 5:23 AM EDT 9:14 PM EDT
Moon 12:25 PM EDT (9/10) 10:38 PM EDT (9/10)
Length of Visible Light 13h 37m
Length of Day
12h 41m
Waxing Crescent, 28% of the Moon is Illuminated
Sep 10
Waxing Crescent
Sep 12
First Quarter
Sep 19
Full
Sep 26
Last Quarter
Oct 4
New

Hourly Weather History & Observations

Time (EDT) Temp. Heat Index Dew Point Humidity Pressure Visibility Wind Dir Wind Speed Gust Speed Precip Events Conditions
12:51 AM 71.1 °F - 68.0 °F 90% 30.02 in 5.0 mi South 5.8 mph - N/A   Scattered Clouds
1:51 AM 70.0 °F - 68.0 °F 93% 30.01 in 4.0 mi South 9.2 mph - N/A   Scattered Clouds
2:51 AM 71.1 °F - 66.9 °F 87% 30.01 in 5.0 mi SSW 6.9 mph - N/A   Partly Cloudy
3:51 AM 71.1 °F - 66.9 °F 87% 30.02 in 6.0 mi SSW 5.8 mph - N/A   Partly Cloudy
4:51 AM 71.1 °F - 66.9 °F 87% 30.04 in 5.0 mi SSW 5.8 mph - N/A   Mostly Cloudy
5:51 AM 73.0 °F - 66.9 °F 81% 30.04 in 7.0 mi SSW 9.2 mph - N/A   Mostly Cloudy
6:51 AM 73.0 °F - 68.0 °F 84% 30.04 in 7.0 mi SSW 9.2 mph 18.4 mph 0.00 in   Mostly Cloudy
7:51 AM 73.0 °F - 68.0 °F 84% 30.05 in 6.0 mi SSW 11.5 mph - N/A   Scattered Clouds
8:51 AM 75.0 °F - 69.1 °F 82% 30.06 in 6.0 mi SSW 9.2 mph - N/A   Partly Cloudy
9:51 AM 78.1 °F - 70.0 °F 76% 30.07 in 7.0 mi SW 10.4 mph 17.3 mph N/A   Clear
10:51 AM 81.0 °F 84.9 °F 71.1 °F 72% 30.07 in 7.0 mi SW 10.4 mph - N/A   Clear
11:51 AM 84.0 °F 89.6 °F 72.0 °F 67% 30.07 in 8.0 mi SSW 10.4 mph - N/A   Clear
12:51 PM 87.1 °F 93.6 °F 72.0 °F 61% 30.06 in 8.0 mi SW 10.4 mph - N/A   Clear
1:51 PM 89.1 °F 97.0 °F 73.0 °F 59% 30.06 in 9.0 mi SW 12.7 mph - N/A   Clear
2:51 PM 90.0 °F 97.9 °F 73.0 °F 57% 30.05 in 10.0 mi SW 11.5 mph - N/A   Clear
3:51 PM 91.0 °F 98.2 °F 72.0 °F 53% 30.04 in 10.0 mi SSW 12.7 mph 18.4 mph N/A   Scattered Clouds
4:51 PM 91.0 °F 98.2 °F 72.0 °F 53% 30.04 in 10.0 mi SW 11.5 mph - N/A   Scattered Clouds
5:51 PM 89.1 °F 97.0 °F 73.0 °F 59% 30.04 in 9.0 mi SW 9.2 mph - N/A   Partly Cloudy
6:51 PM 87.1 °F 93.6 °F 72.0 °F 61% 30.04 in 9.0 mi SSW 10.4 mph 16.1 mph N/A   Partly Cloudy
7:51 PM 84.0 °F 89.6 °F 72.0 °F 67% 30.05 in 8.0 mi SSW 5.8 mph - N/A   Clear
8:51 PM 82.0 °F 87.4 °F 73.0 °F 74% 30.08 in 9.0 mi SSW 6.9 mph - N/A   Clear
9:51 PM 81.0 °F 85.8 °F 73.0 °F 77% 30.10 in 8.0 mi SSW 6.9 mph - N/A   Clear
10:51 PM 80.1 °F 84.2 °F 73.0 °F 79% 30.10 in 7.0 mi SSW 8.1 mph - N/A   Clear
11:51 PM 80.1 °F 84.2 °F 73.0 °F 79% 30.10 in 7.0 mi SSW 8.1 mph - N/A   Clear